Waarnemingen

Advertentie
Mijn weer
Carcassonne, Frankrijk (7635): temperatuur & dauwpunt: 22.05.2017 06:00:00 - 28.05.2017 06:00:00 (CEST)Carcassonne, Frankrijk (7635): temperatuur 5cm: 22.05.2017 06:00:00 - 28.05.2017 06:00:00 (CEST)Carcassonne, Frankrijk (7635): temperatuur -20cm & temperatuur -100cm: 22.05.2017 06:00:00 - 28.05.2017 06:00:00 (CEST)Carcassonne, Frankrijk (7635): windsnelheid & windstoten: 22.05.2017 06:00:00 - 28.05.2017 06:00:00 (CEST)Carcassonne, Frankrijk (7635): windrichting: 22.05.2017 06:00:00 - 28.05.2017 06:00:00 (CEST)Carcassonne, Frankrijk (7635): luchtdruk: 22.05.2017 06:00:00 - 28.05.2017 06:00:00 (CEST)Carcassonne, Frankrijk (7635): zicht: 22.05.2017 06:00:00 - 28.05.2017 06:00:00 (CEST)Carcassonne, Frankrijk (7635): Zonneschijnduur: 22.05.2017 06:00:00 - 28.05.2017 06:00:00 (CEST)Carcassonne, Frankrijk (7635): neerslag: 22.05.2017 06:00:00 - 28.05.2017 06:00:00 (CEST)
Datum & Tijd tt [°C] td [°C] tt 5cm [°C] tt -20cm [°C] tt -100cm [°C] ff [km/u] ff [kn] fx [km/u] fx [kn] dd ppp [hPa] vv [km] sd [min] rr [mm]
28.05.2017 06:00:00 17,1 13,0 16,4 22,5 18,6 23 12 43 23 OZO 1017,8 57 0 0,0
28.05.2017 05:00:00 17,4 12,3 16,8 22,8 18,6 22 12 42 23 OZO 1017,8 59 0 0,0
28.05.2017 04:00:00 17,7 11,5 17,0 23,0 18,6 21 12 35 19 OZO 1018,0 60 0 0,0
28.05.2017 03:00:00 17,8 12,5 17,3 23,3 18,6 20 11 41 22 O 1018,2 59 0 0,0
28.05.2017 02:00:00 18,1 13,4 17,4 23,5 18,6 21 11 36 19 O 1018,5 53 0 0,0
28.05.2017 01:00:00 18,1 13,8 17,6 23,8 18,6 22 12 37 20 O 1018,6 47 0 0,0
28.05.2017 00:00:00 18,5 13,6 18,0 24,1 18,6 20 11 36 20 O 1018,9 52 0 0,0
27.05.2017 23:00:00 19,2 13,6 18,8 24,3 18,6 24 13 43 23 O 1018,8 56 0 0,0
27.05.2017 22:00:00 20,1 13,5 19,6 24,5 18,6 19 11 38 20 O 1018,0 60 0 0,0
27.05.2017 21:00:00 21,4 13,1 21,0 24,7 18,6 22 12 44 24 O 1017,6 50 10 0,0
27.05.2017 20:00:00 22,8 13,0 23,3 24,7 18,5 27 14 54 29 O 1017,3 17 60 0,0
27.05.2017 19:00:00 23,9 12,8 - - - 35 19 52 28 O 1016,9 9 - 0,0
27.05.2017 18:00:00 24,8 12,4 27,5 24,2 18,5 29 16 63 34 O 1016,9 7 60 0,0
27.05.2017 17:00:00 25,2 13,7 28,0 23,8 18,5 29 16 56 31 O 1017,0 7 60 0,0
27.05.2017 16:00:00 25,1 14,2 28,5 23,2 18,5 36 19 54 29 O 1017,3 7 60 0,0
27.05.2017 15:00:00 25,2 15,2 28,7 22,6 18,4 34 19 56 30 O 1017,4 8 60 0,0
27.05.2017 14:00:00 24,5 14,9 27,9 22,2 18,5 33 18 55 30 O 1017,7 9 60 0,0
27.05.2017 13:00:00 23,5 15,0 24,9 21,9 18,4 35 19 55 30 O 1017,8 10 54 0,0
27.05.2017 12:00:00 22,8 16,1 21,6 21,9 18,4 30 16 51 27 O 1017,9 14 25 0,0
27.05.2017 11:00:00 19,9 15,7 19,7 21,9 18,4 31 17 48 26 O 1018,2 14 0 0,0
27.05.2017 10:00:00 18,6 15,3 18,3 22,1 18,4 28 15 48 26 O 1018,2 12 0 0,0
27.05.2017 09:00:00 17,8 15,2 17,4 22,2 18,4 28 15 46 25 O 1018,1 15 0 0,0
27.05.2017 08:00:00 17,7 15,5 17,9 22,4 18,4 26 14 42 23 O 1017,9 17 2 0,0
27.05.2017 07:00:00 17,8 15,8 17,8 22,5 18,3 24 13 35 19 O 1017,8 15 20 0,0
27.05.2017 06:00:00 17,8 15,6 17,8 22,7 18,4 20 11 31 17 O 1017,7 14 0 0,0
27.05.2017 05:00:00 17,9 15,5 17,8 22,9 18,3 15 8 25 14 O 1017,6 15 0 0,0
27.05.2017 04:00:00 17,9 15,2 17,8 23,1 18,3 11 6 23 12 O 1018,1 18 0 0,0
27.05.2017 03:00:00 17,9 15,0 17,4 23,3 18,3 10 6 21 11 O 1018,6 20 0 0,0
27.05.2017 02:00:00 17,9 15,0 17,7 23,5 18,3 8 5 35 19 OZO 1019,0 21 0 0,0
27.05.2017 01:00:00 17,8 15,2 - - - 21 11 41 22 O 1016,9 18 - 0,0
27.05.2017 00:00:00 17,3 15,6 17,0 24,1 18,3 24 13 35 19 O 1016,5 12 0 0,0
26.05.2017 23:00:00 18,0 15,1 17,4 24,4 18,2 20 11 41 22 O 1016,1 17 0 0,0
26.05.2017 22:00:00 18,8 14,9 18,3 24,6 18,3 26 14 42 23 O 1015,9 21 0 0,0
26.05.2017 21:00:00 19,9 14,5 19,6 24,9 18,2 23 13 48 26 O 1015,1 24 0 0,0
26.05.2017 20:00:00 21,3 15,2 21,5 25,0 18,2 21 11 40 21 O 1015,1 26 0 0,0
26.05.2017 19:00:00 21,9 15,0 - - - - - 42 23 - 1015,0 28 - 0,0
26.05.2017 18:00:00 22,5 14,3 - - - 31 17 48 26 O 1015,1 35 - 0,0
26.05.2017 17:00:00 23,6 14,9 24,7 24,6 18,2 31 17 61 33 O 1014,5 25 17 0,0
26.05.2017 16:00:00 25,2 14,3 28,9 24,0 18,2 37 20 58 32 O 1014,1 12 60 0,0
26.05.2017 15:00:00 25,6 14,4 - - - 35 19 52 28 O 1014,2 15 - 0,0
26.05.2017 14:00:00 25,4 14,8 28,4 23,0 18,1 37 20 54 29 O 1014,2 7 60 0,0
26.05.2017 13:00:00 24,5 14,9 27,3 22,5 18,1 30 16 52 28 O 1014,7 7 60 0,0
26.05.2017 12:00:00 23,5 15,3 25,3 22,3 18,1 34 19 49 26 O 1015,0 8 60 0,0
26.05.2017 11:00:00 21,9 15,0 23,6 22,2 18,1 33 18 50 27 O 1015,4 9 60 0,0
26.05.2017 10:00:00 20,2 15,2 21,0 22,2 18,1 26 14 44 24 O 1015,6 9 60 0,0
26.05.2017 09:00:00 18,4 15,3 17,9 22,3 18,0 26 14 38 21 O 1016,0 9 26 0,0
26.05.2017 08:00:00 17,3 15,3 16,9 22,6 18,0 20 11 32 17 O 1016,1 8 0 0,0
26.05.2017 07:00:00 16,6 15,5 15,8 22,9 18,0 14 8 36 20 O 1015,7 6 0 0,0
26.05.2017 06:00:00 16,1 15,1 15,7 23,1 18,0 23 12 33 18 O 1014,9 3,3 0 0,0
26.05.2017 05:00:00 16,6 14,4 16,0 23,4 18,0 16 9 24 13 O 1015,0 15 0 0,0
26.05.2017 04:00:00 17,0 14,3 16,1 23,8 18,0 13 7 28 15 O 1015,1 26 0 0,0
26.05.2017 03:00:00 17,5 13,6 16,8 24,1 18,0 19 10 27 14 O 1014,8 46 0 0,0
26.05.2017 02:00:00 18,0 12,9 17,1 24,4 18,0 15 8 25 13 O 1014,7 59 0 0,0
26.05.2017 01:00:00 18,9 12,2 18,0 24,8 17,9 13 7 24 13 O 1014,9 60 0 0,0
26.05.2017 00:00:00 20,1 11,8 19,0 25,1 17,9 14 7 27 15 O 1014,7 60 0 0,0
25.05.2017 23:00:00 21,3 11,6 20,4 25,5 17,9 15 8 25 13 O 1014,5 60 0 0,0
25.05.2017 22:00:00 22,7 11,4 21,8 25,8 17,9 19 10 36 20 O 1014,0 60 0 0,0
25.05.2017 21:00:00 24,2 12,2 23,7 25,9 17,9 23 13 45 24 O 1013,1 40 48 0,0
25.05.2017 20:00:00 26,3 13,1 27,2 25,9 17,9 28 15 49 26 O 1012,5 24 60 0,0
25.05.2017 19:00:00 29,6 12,9 31,6 25,7 17,9 27 15 45 24 O 1011,8 31 60 0,0
25.05.2017 18:00:00 33,6 10,9 37,9 25,2 17,9 3 2 11 6 WNW 1011,4 51 60 0,0
25.05.2017 17:00:00 33,1 10,4 37,4 24,6 17,8 6 3 12 7 W 1011,6 60 60 0,0
25.05.2017 16:00:00 32,7 10,1 - - - 4 2 18 10 ZW 1012,2 18 - 0,0
25.05.2017 15:00:00 31,5 11,8 35,7 23,1 17,8 6 3 21 11 NW 1012,8 34 60 0,0
25.05.2017 14:00:00 30,5 15,0 34,5 22,3 17,8 8 4 22 12 W 1013,4 26 60 0,0
25.05.2017 13:00:00 29,4 16,2 33,1 21,6 17,8 14 7 22 12 WNW 1013,9 26 60 0,0
25.05.2017 12:00:00 27,6 16,9 29,9 21,1 17,8 9 5 20 11 W 1014,4 19 60 0,0
25.05.2017 11:00:00 25,4 16,3 27,8 20,8 17,8 12 7 19 11 W 1014,8 35 60 0,0
25.05.2017 10:00:00 22,9 15,7 25,2 20,8 17,8 10 5 15 8 WNW 1015,4 41 60 0,0
25.05.2017 09:00:00 20,1 14,9 21,3 20,9 17,8 3 2 8 4 W 1015,9 19 60 0,0
25.05.2017 08:00:00 17,5 13,6 13,4 21,1 17,8 0 0 8 5 N 1016,1 50 60 0,0
25.05.2017 07:00:00 13,5 12,2 10,5 21,4 17,8 3 2 6 3 Z 1016,2 46 16 0,0
25.05.2017 06:00:00 13,1 11,3 10,8 21,7 17,8 2 1 10 5 WNW 1016,1 41 0 0,0
25.05.2017 05:00:00 13,8 12,2 11,2 21,9 17,7 4 2 7 4 Z 1016,2 57 0 0,0
25.05.2017 04:00:00 15,0 11,9 13,1 22,3 17,7 4 2 11 6 Z 1016,4 60 0 0,0
25.05.2017 03:00:00 16,4 12,6 14,2 22,5 17,7 7 4 12 7 Z 1016,8 60 0 0,0
25.05.2017 02:00:00 17,3 13,0 15,0 22,8 17,7 7 4 12 7 Z 1017,3 60 0 0,0
25.05.2017 01:00:00 18,1 13,4 15,8 23,1 17,7 8 4 11 6 Z 1017,4 60 0 0,0
25.05.2017 00:00:00 20,2 15,0 17,7 23,3 17,7 8 4 18 10 WZW 1017,5 60 0 0,0
24.05.2017 23:00:00 20,4 14,3 17,9 23,6 17,7 8 4 17 9 WNW 1017,8 60 0 0,0
24.05.2017 22:00:00 22,9 14,5 21,4 23,9 17,7 12 7 24 13 W 1017,2 12 0 0,0
24.05.2017 21:00:00 24,7 15,1 23,5 24,0 17,7 12 7 23 13 W 1016,9 55 47 0,0
24.05.2017 20:00:00 26,8 14,5 27,4 23,9 17,7 14 8 29 16 W 1016,9 17 60 0,0
24.05.2017 19:00:00 27,9 13,4 29,7 23,7 17,7 19 10 30 16 W 1016,9 13 60 0,0
24.05.2017 18:00:00 28,4 13,9 31,1 23,3 17,7 18 10 30 16 W 1017,1 14 60 0,0
24.05.2017 17:00:00 28,4 14,2 31,5 22,7 17,7 19 10 33 18 W 1017,7 14 60 0,0
24.05.2017 16:00:00 28,1 15,0 31,5 21,9 17,7 19 10 32 18 W 1018,3 13 60 0,0
24.05.2017 15:00:00 27,6 15,9 30,4 21,2 17,7 20 11 36 19 W 1018,7 12 60 0,0
24.05.2017 14:00:00 26,1 15,5 29,3 20,4 17,7 23 13 36 19 W 1019,3 14 60 0,0
24.05.2017 13:00:00 24,4 16,4 27,5 19,8 17,7 16 9 29 16 WNW 1020,2 16 60 0,0
24.05.2017 12:00:00 22,5 16,8 24,9 19,3 17,7 16 9 29 16 W 1020,8 19 60 0,0
24.05.2017 11:00:00 20,5 15,1 22,4 19,1 17,7 16 9 34 18 W 1021,3 17 60 0,0
24.05.2017 10:00:00 18,9 14,4 20,6 19,0 17,7 20 11 32 17 W 1021,5 19 60 0,0
24.05.2017 09:00:00 17,9 14,4 18,1 19,1 17,7 14 7 24 13 W 1021,9 20 60 0,0
24.05.2017 08:00:00 16,5 13,8 14,7 19,2 17,7 13 7 21 12 WZW 1022,1 20 60 0,0
24.05.2017 07:00:00 14,6 13,1 12,8 19,4 17,7 9 5 17 9 ZW 1021,9 11 17 0,0
24.05.2017 06:00:00 14,1 12,7 13,1 19,6 17,6 8 5 16 9 ZW 1022,1 9 0 0,0
24.05.2017 05:00:00 14,7 12,9 13,9 19,7 17,6 10 5 21 11 WZW 1022,0 11 0 0,0
24.05.2017 04:00:00 14,8 13,0 14,0 19,9 17,7 12 6 23 13 WZW 1022,5 13 0 0,0
24.05.2017 03:00:00 15,8 13,1 15,2 20,0 17,6 13 7 26 14 W 1022,8 20 0 0,0
24.05.2017 02:00:00 16,3 13,4 15,9 20,2 17,6 16 8 33 18 W 1023,2 24 0 0,0
24.05.2017 01:00:00 16,4 13,5 15,7 20,4 17,6 19 10 41 22 W 1023,3 24 0 0,0
24.05.2017 00:00:00 16,2 13,5 15,7 20,6 17,6 20 11 37 20 W 1023,3 24 0 0,0
23.05.2017 23:00:00 16,5 13,6 16,1 20,8 17,7 19 11 34 18 W 1023,4 23 0 0,0
23.05.2017 22:00:00 16,8 13,7 16,5 20,9 17,6 19 10 32 17 WNW 1023,2 26 0 0,0
23.05.2017 21:00:00 16,9 13,6 16,8 21,0 17,6 19 10 44 24 WNW 1022,8 29 0 0,0
23.05.2017 20:00:00 17,3 13,8 17,6 20,9 17,6 23 12 43 23 W 1022,3 25 0 0,0
23.05.2017 19:00:00 17,9 14,0 - - - 24 13 44 24 W 1022,1 19 - 0,0
23.05.2017 18:00:00 18,5 13,8 19,8 20,7 17,6 24 13 41 22 W 1022,3 24 10 0,0
23.05.2017 17:00:00 18,5 14,4 19,5 20,5 17,6 23 13 41 22 W 1022,6 20 3 0,0
23.05.2017 16:00:00 18,5 14,0 20,0 20,2 17,6 25 14 40 22 WNW 1023,0 20 7 0,0
23.05.2017 15:00:00 18,7 14,2 19,4 19,9 17,6 21 11 40 21 W 1023,3 22 20 0,0
23.05.2017 14:00:00 17,7 13,8 18,2 19,8 17,6 26 14 38 20 WNW 1023,7 20 6 0,0
23.05.2017 13:00:00 17,8 14,1 18,7 19,6 17,6 22 12 40 21 WNW 1023,8 23 18 0,0
23.05.2017 12:00:00 16,7 14,0 17,5 19,5 17,5 24 13 40 21 W 1024,0 22 1 0,0
23.05.2017 11:00:00 16,7 13,8 17,6 19,5 17,6 23 12 42 23 W 1023,9 13 37 0,0
23.05.2017 10:00:00 16,0 13,7 15,6 19,5 17,5 26 14 39 21 WNW 1023,6 14 19 0,0
23.05.2017 09:00:00 15,2 13,4 15,5 19,7 17,6 20 11 39 21 WNW 1023,4 15 0 0,0
23.05.2017 08:00:00 15,1 13,6 14,3 19,8 17,5 25 13 37 20 WNW 1022,9 13 4 0,0
23.05.2017 07:00:00 14,5 13,7 14,2 20,0 17,5 21 12 38 21 W 1022,5 4,1 0 0,0
23.05.2017 06:00:00 14,7 13,9 14,4 20,1 17,5 22 12 39 21 W 1022,0 3,6 0 0,0
23.05.2017 05:00:00 15,2 14,1 14,9 20,3 17,6 22 12 40 22 W 1021,5 4,2 0 0,0
23.05.2017 04:00:00 16,0 14,5 15,7 20,5 17,5 24 13 41 22 W 1021,0 7 0 0,0
23.05.2017 03:00:00 17,1 15,6 16,6 20,6 17,5 22 12 38 20 W 1020,1 20 0 0,0
23.05.2017 02:00:00 17,0 15,5 15,4 20,8 17,5 18 10 35 19 W 1019,8 32 0 0,0
23.05.2017 01:00:00 16,4 15,1 15,1 21,0 17,5 6 3 13 7 WNW 1019,9 10 0 0,2
23.05.2017 00:00:00 17,0 15,7 16,1 21,2 17,5 4 2 7 4 WNW 1019,8 10 0 0,4
22.05.2017 23:00:00 17,1 15,3 16,0 21,4 17,5 4 2 6 3 WNW 1019,9 17 0 0,0
22.05.2017 22:00:00 17,8 14,7 16,5 21,5 17,5 - - 9 5 - 1019,7 18 0 0,0
22.05.2017 21:00:00 18,9 14,6 18,4 21,6 17,5 7 4 19 10 O 1018,6 43 0 0,0
22.05.2017 20:00:00 20,1 14,5 20,0 21,6 17,5 13 7 24 13 O 1017,7 42 0 0,0
22.05.2017 19:00:00 20,8 13,7 21,2 21,4 17,5 16 9 33 18 O 1017,6 33 4 0,0
22.05.2017 18:00:00 22,4 14,3 23,0 21,1 17,5 22 12 35 19 O 1017,3 19 48 0,0
22.05.2017 17:00:00 22,4 14,5 23,3 20,7 17,5 22 12 40 22 O 1017,4 14 50 0,0
22.05.2017 16:00:00 21,9 13,5 25,1 20,1 17,5 27 15 42 23 O 1017,7 15 57 0,0
22.05.2017 15:00:00 21,9 14,5 23,8 19,6 17,5 22 12 40 22 O 1017,9 20 50 0,0
22.05.2017 14:00:00 21,6 14,3 21,8 19,2 17,5 19 11 41 22 OZO 1018,0 20 45 0,0
22.05.2017 13:00:00 20,7 14,1 22,7 18,8 17,5 21 11 37 20 O 1018,2 36 48 0,0
22.05.2017 12:00:00 19,0 13,0 20,2 18,8 17,5 21 11 35 19 O 1018,6 50 17 0,0
22.05.2017 11:00:00 17,7 11,0 16,9 18,8 17,5 13 7 29 16 OZO 1018,8 60 0 0,0
22.05.2017 10:00:00 16,3 9,5 16,5 18,9 17,5 11 6 44 24 ZO 1018,9 43 0 0,0
22.05.2017 09:00:00 16,2 8,9 15,7 19,0 17,4 26 14 43 23 O 1017,8 34 5 0,0
22.05.2017 08:00:00 15,7 8,9 15,1 19,1 17,5 23 13 40 22 O 1017,1 51 0 0,0
22.05.2017 07:00:00 15,2 10,0 14,8 19,3 17,5 27 15 44 24 O 1016,8 60 0 0,0
22.05.2017 06:00:00 15,3 9,0 15,1 19,5 17,5 25 13 38 20 O 1016,2 60 0 0,0

tt = temperatuur
td = dauwpunt
tt 5cm = temperatuur 5cm
tt -20cm = temperatuur -20cm
tt -100cm = temperatuur -100cm
ff = windsnelheid
fx = windstoten
dd = windrichting
ppp = luchtdruk
vv = zicht
sd = Zonneschijnduur
rr = neerslag

Weerstations in de omgeving